Location: B
(0.0000°N, 0.0000°E)
Time: 03:23:06
(UTC+02:00)

Daily predictions for brighter satellites

Satellite Brightness Start Highest point End
(mag) Time Altitude Azimuth Time Altitude Azimuth Time Altitude Azimuth
CZ-3 R/B 4.1 03:44:13 10° WSW 04:47:12 81° NW 04:59:16 10° NE
Timation 2 Rocket 4.4 05:36:02 62° NE 05:36:02 62° NE 05:41:36 10° NNE
SEDSat Delta rocket 4.4 05:39:04 55° ESE 05:39:04 55° ESE 05:43:52 10° ESE
Atlas Centaur 2 3.3 05:45:17 41° N 05:47:08 50° NNE 05:53:10 10° ESE
CZ-3A R/B 4.1 05:48:41 22° NNW 05:50:19 24° N 06:03:14 10° NE
USA 267 3.9 05:44:54 10° SE 05:51:13 52° NE 05:57:30 10° NNW
Okean-O 4.1 05:51:28 10° NE 05:55:29 35° ESE 05:56:25 31° SE
NOSS 3-2 (C) 4.1 05:56:49 10° NNW 06:05:03 87° ENE 06:13:17 10° SSE
COSMOS 2455 2.8 06:00:49 10° NNW 06:06:48 82° ENE 06:12:48 10° SSE
ERS-2 3.3 06:05:30 10° NNE 06:08:44 41° E 06:08:44 41° E
Cosmos 1000 Rocket 4.4 06:10:17 59° WNW 06:10:17 59° WNW 06:15:49 10° N
IRAS Rocket 4.4 06:07:46 10° N 06:12:36 53° NW 06:12:36 53° NW
ADEOS II 4.2 06:10:33 10° NNW 06:11:13 13° NNW 06:11:13 13° NNW
ARIANE 5 DEB (SYLDA) 3.0 06:16:53 53° NNW 06:17:21 57° NNE 06:27:07 10° E
OAO 2 Rocket 3.6 06:18:13 52° SSW 06:19:15 64° SE 06:24:28 10° ENE
TSX-5 4.1 06:22:02 51° ESE 06:22:02 51° ESE 06:25:29 10° NNE
Ariane H10 3.3 06:25:18 48° S 06:25:28 49° SSE 06:33:15 10° E
Skynet4D Del rocket 4.1 06:26:02 38° SSW 06:26:02 38° SSW 06:30:49 10° SE
HETE-2 4.4 06:26:12 86° W 06:26:17 90° NNE 06:30:26 10° E
Genesis I 3.7 06:22:41 10° NNW 06:26:33 59° ENE 06:30:24 10° SSE
Cosmos 2082 Rocket 4.3 06:29:48 11° NW 06:29:48 11° NW 06:30:06 10° NW
IUS-17 SRM-1 2.8 06:26:52 62° S 06:27:08 66° SSE 06:34:16 10° ENE
CZ-4B R/B 4.2 06:24:01 10° N 06:26:50 46° NNW 06:26:50 46° NNW
Feng Yun 1-1 Rocket 4.0 06:25:08 10° N 06:30:30 75° WNW 06:34:30 19° SSW
Cosmos 2100 Rocket 4.0 06:25:00 10° N 06:31:08 83° E 06:37:18 10° S
Cosmos 724 4.5 06:33:25 27° WNW 06:36:02 42° WSW 06:41:27 10° S
NOAA 6 4.1 06:31:04 10° NNE 06:36:13 80° ESE 06:41:25 10° S
Ariane H10+ 3.9 06:38:11 12° NE 06:38:11 12° NE 06:38:24 10° ENE
ARIANE 5 R/B 2.7 06:38:22 30° NE 06:38:22 30° NE 06:39:33 10° ENE
PSLV R/B 3.0 06:38:20 77° WNW 06:38:25 79° NW 06:41:46 10° NE
ASTRO E2 3.0 06:37:21 43° SSW 06:38:26 61° SE 06:42:23 10° ENE
Cosmos 2173 Rocket 3.9 06:35:54 10° N 06:42:05 85° W 06:48:13 10° S
Cosmos 2251 Rocket 3.4 06:40:00 18° SSW 06:43:50 67° WNW 06:49:02 10° N
SL-24 R/B 4.3 06:39:05 10° N 06:43:54 86° W 06:49:03 10° S
Cosmos 1076 Rocket 3.6 06:45:01 23° SSW 06:47:28 51° W 06:51:35 10° N
Meteor 2-17 Rocket 4.4 06:42:40 10° N 06:48:43 86° E 06:54:49 10° S
Cosmos 2061 Rocket 3.9 06:42:43 10° N 06:48:53 80° W 06:55:06 10° S
CZ-2C R/B 3.5 06:44:40 10° S 06:49:09 82° WSW 06:53:33 10° NNW
Cosmos 1408 Rocket 3.5 06:45:34 10° S 06:50:01 84° W 06:54:27 10° N
Cosmos 2123 Rocket 4.2 06:45:53 10° SSW 06:51:55 48° W 06:57:58 10° NNW
Cosmos 1674 2.7 06:51:15 17° SSW 06:53:56 52° W 06:57:35 10° N
LE-5 3.7 07:03:44 21° NNW 07:04:38 41° NNE 07:07:00 10° ESE
Elektron 3 4.2 07:02:02 10° NW 07:04:56 37° WSW 07:07:48 10° S
CZ-2C R/B 4.5 07:02:13 10° NE 07:06:08 27° ESE 07:10:00 10° SSE
SL-14 R/B 4.4 07:05:47 10° SSE 07:09:27 45° E 07:13:07 10° NNE
deb Kosmos-1763 4.1 07:05:53 10° SSW 07:09:39 89° E 07:13:26 10° NNE
IDEFIX/ARIANE 42P 3.8 07:10:53 10° NNE 07:15:52 45° ESE 07:20:53 10° S
Ariane Rocket 3.3 07:13:26 10° NNE 07:18:28 71° ESE 07:23:33 10° S
Cosmos 2016 Rocket 4.1 07:13:17 10° NNW 07:19:24 54° W 07:25:36 10° S
USA 116 4.5 07:18:16 10° S 07:23:19 61° WSW 07:28:35 10° NNW
Cosmos 2058 4.4 07:24:48 10° SSE 07:28:47 42° E 07:32:43 10° NNE
USA 267 4.3 07:28:56 10° S 07:33:56 24° SW 07:38:56 10° WNW
Cosmos 1908 3.2 07:30:40 10° N 07:34:31 85° W 07:38:26 10° S
Thor Agena Rocket 3.6 07:29:33 10° SSE 07:34:36 83° ENE 07:39:39 10° N
COSMO-SKYMED 1 3.2 07:30:55 10° SSE 07:35:14 64° ENE 07:39:30 10° N
Atlas Centaur 2 2.8 07:30:10 10° WNW 07:36:29 41° SW 07:41:31 10° SE
H-2A R/B 3.5 07:49:18 10° SW 08:16:50 84° NW 08:21:20 10° NE
